Flag for Canada Weather past 2 weeks in Creston, British Columbia, Canada

Now
48 °F

Cool.


Feels Like: 46 °F
Forecast: 21 / 53 °F
Wind: 5 mph from West

Location: Creston

Current Time: Mar 6, 2015 at 2:57:22 PM

Latest Report: Mar 6, 2015 at 2:00 PM


Visibility: N/A

Pressure: 30.41 "Hg

Humidity: 45%

Dew point: 27 °F

Location of CrestonLocation

Historic Weather in Creston — Graph

°F

Creston temperature yesterday

Maximum temperature yesterday: 43 °F (at 5:00 PM)
Minimum temperature yesterday: 24 °F (at 8:00 AM)
Average temperature yesterday: 32 °F

Past Weeks' High & Low Weather Summary

 TemperatureHumidityPressure
High47 °F (Feb 25, 5:00 PM)96% (Feb 19, 9:00 PM)30.60 "Hg (Feb 19, 9:00 PM)
Low18 °F (Mar 4, 7:00 AM)22% (Feb 21, 3:00 PM)29.96 "Hg (Feb 27, 5:00 AM)
Average33 °F59%30.28 "Hg
* Reported Feb 19 1:00 PM — Mar 6 1:00 PM, Creston, Weather by CustomWeather, © 2015

Note: Actual official high and low records may vary slightly from our data, if they occured in-between our weather recording intervals... More about our weather records

Advertising

Creston weather history for previous 24 hours

 ConditionsComfort  
Time TempWeatherWind HumidityBarometerVisibility
1:00 PM
Fri, Mar 6
44 °FQuite cool.5 mph50%30.44 "HgN/A
12:00 PM40 °FQuite cool.5 mph58%30.45 "HgN/A
11:00 AM38 °FChilly.2 mph60%30.47 "HgN/A
10:00 AM35 °FChilly.1 mph67%30.48 "HgN/A
9:00 AM31 °FChilly.No wind73%30.48 "HgN/A
8:00 AM27 °FChilly.2 mph78%30.46 "HgN/A
7:00 AM27 °FChilly.1 mph81%30.45 "HgN/A
6:00 AM29 °FChilly.2 mph75%30.44 "HgN/A
5:00 AM29 °FChilly.No wind74%30.42 "HgN/A
4:00 AM29 °FChilly.3 mph72%30.43 "HgN/A
3:00 AM31 °FChilly.2 mph69%30.43 "HgN/A
2:00 AM33 °FChilly.No wind62%30.43 "HgN/A
1:00 AM30 °FChilly.1 mph68%30.42 "HgN/A
12:00 AM33 °FChilly.1 mph60%30.42 "HgN/A
11:00 PM
Thu, Mar 5
32 °FChilly.1 mph64%30.44 "HgN/A
10:00 PM31 °FChilly.1 mph63%30.42 "HgN/A
9:00 PM33 °FChilly.1 mph57%30.41 "HgN/A
8:00 PM37 °FChilly.2 mph49%30.40 "HgN/A
7:00 PM37 °FChilly.2 mph50%30.39 "HgN/A
6:00 PM41 °FQuite cool.5 mph40%30.37 "HgN/A
5:00 PM43 °FQuite cool.3 mph36%30.36 "HgN/A
4:00 PM42 °FQuite cool.3 mph42%30.37 "HgN/A
3:00 PM40 °FChilly.2 mph50%30.38 "HgN/A
2:00 PM38 °FChilly.2 mph47%30.40 "HgN/A
Weather by CustomWeather, © 2015

See weather overviewHow to use our weather pages